Location: Kermapucano
(48.0667°N, 3.3000°W)
Time: 20:05:04
(UTC+00:00)

FALCON 9 DEB - Pass Details

Date: 29 November 2020
Orbit: 372 x 393 km, 53.0° (Epoch: 24 January)

Event Time Altitude Azimuth Distance (km) Brightness Sun altitude
Exits shadow 06:26:00 19° 267° (W) 1,028 4.4 -12.0°
Maximum altitude 06:28:06 54° 340° (NNW) 495 3.1 -11.6°
Drops below altitude 10° 06:31:24 - 60° (ENE) 1,493 6.4 -11.1°
Sets 06:33:25 0° 65° (ENE) 2,318 7.5 -10.8°
